Weather History for Ludington, MI

Change the Weather History Date:

Thursday, February 14, 2013

  Actual Average Record
Temperature  
Mean Temperature 32 °F -  
Max Temperature 37 °F 33 °F 51 °F (1984)
Min Temperature 26 °F 17 °F -2 °F (1970)
Degree Days  
Heating Degree Days 34    
Moisture  
Dew Point 30 °F    
Average Humidity 86    
Maximum Humidity 90    
Minimum Humidity 73    
Precipitation  
Precipitation 0.05 in - - ()
Sea Level Pressure  
Sea Level Pressure 29.68 in    
Wind  
Wind Speed 7 mph (WSW)    
Max Wind Speed 23 mph    
Max Gust Speed 30 mph    
Visibility 4 miles    
Events Rain , Snow    
Averages and records for this station are not official NWS values.
T = Trace of Precipitation, MM = Missing Value Source: NWS Daily Summary

Daily Weather History Graph

Daily Weather History Graph

Search for Another Location

Airport:

Trip Planner

Search our weather history database for the weather conditions in past years. The results will help you decide how hot, cold, wet, or windy it might be!

Date:

Astronomy

Feb. 14, 2013 Rise Set
Actual Time 7:45 AM EST 6:14 PM EST
Civil Twilight 7:16 AM EST 6:44 PM EST
Nautical Twilight 6:42 AM EST 7:17 PM EST
Astronomical Twilight 6:08 AM EST 7:51 PM EST
Moon 9:35 AM EST (2/14) 11:29 PM EST (2/14)
Length of Visible Light 11h 27m
Length of Day
10h 28m
Waxing Crescent, 21% of the Moon is Illuminated
Feb 14
Waxing Crescent
Feb 17
First Quarter
Feb 25
Full
Mar 4
Last Quarter
Mar 11
New

Hourly Weather History & Observations

Time (EST) Temp. Windchill Dew Point Humidity Pressure Visibility Wind Dir Wind Speed Gust Speed Precip Events Conditions
12:15 AM 35.1 °F 31.0 °F 30.6 °F 84% 29.69 in 7.0 mi SW 4.6 mph - N/A   Mostly Cloudy
12:34 AM 35.1 °F 31.0 °F 30.2 °F 82% 29.69 in 7.0 mi SW 4.6 mph - N/A   Mostly Cloudy
12:55 AM 35.1 °F 31.0 °F 30.2 °F 82% 29.69 in 10.0 mi WSW 4.6 mph - N/A   Scattered Clouds
1:15 AM 35.1 °F 31.0 °F 30.6 °F 84% 29.69 in 7.0 mi WSW 4.6 mph - N/A   Scattered Clouds
1:34 AM 35.1 °F 31.0 °F 30.7 °F 84% 29.69 in 7.0 mi SSW 4.6 mph - N/A   Clear
1:55 AM 35.1 °F - 30.9 °F 85% 29.68 in 7.0 mi Calm Calm - N/A   Scattered Clouds
2:15 AM 35.1 °F 31.0 °F 30.9 °F 85% 29.68 in 7.0 mi SW 4.6 mph - N/A   Mostly Cloudy
2:34 AM 35.1 °F 31.0 °F 30.9 °F 85% 29.68 in 7.0 mi SW 4.6 mph - N/A   Mostly Cloudy
2:55 AM 35.1 °F 32.2 °F 30.9 °F 85% 29.67 in 7.0 mi SW 3.5 mph - N/A   Overcast
3:15 AM 35.1 °F 31.0 °F 30.9 °F 85% 29.67 in 7.0 mi SSW 4.6 mph - N/A   Overcast
3:34 AM 35.1 °F 30.1 °F 30.7 °F 84% 29.67 in 7.0 mi SSW 5.8 mph - N/A   Overcast
3:55 AM 35.1 °F 31.0 °F 30.7 °F 84% 29.66 in 7.0 mi SSW 4.6 mph - N/A   Overcast
4:15 AM 35.1 °F 31.0 °F 30.7 °F 84% 29.66 in 7.0 mi SSW 4.6 mph - N/A   Light Drizzle
4:34 AM 35.1 °F 32.2 °F 30.9 °F 85% 29.65 in 7.0 mi South 3.5 mph - N/A   Overcast
4:55 AM 35.1 °F 31.0 °F 31.1 °F 85% 29.64 in 7.0 mi South 4.6 mph - N/A   Overcast
5:15 AM 35.1 °F 30.1 °F 31.1 °F 85% 29.64 in 7.0 mi South 5.8 mph - N/A   Overcast
5:35 AM 35.1 °F 32.2 °F 31.1 °F 85% 29.64 in 7.0 mi SSE 3.5 mph - N/A   Overcast
5:55 AM 35.1 °F 30.1 °F 31.1 °F 85% 29.64 in 5.0 mi South 5.8 mph - N/A Snow Light Snow
6:15 AM 35.1 °F 30.1 °F 31.8 °F 88% 29.63 in 2.0 mi South 5.8 mph - N/A Snow Light Snow
6:35 AM 35.1 °F 30.1 °F 32.0 °F 89% 29.62 in 3.0 mi SSE 5.8 mph - N/A Snow Light Snow
7:14 AM 35.1 °F 32.2 °F 32.0 °F 89% 29.61 in 1.5 mi SSE 3.5 mph - N/A Snow Light Snow
7:35 AM 35.1 °F 31.0 °F 32.0 °F 89% 29.61 in 1.8 mi SE 4.6 mph - N/A Snow Light Snow
7:54 AM 35.1 °F 31.0 °F 32.2 °F 89% 29.60 in 2.5 mi SE 4.6 mph - N/A Snow Light Snow
8:15 AM 35.1 °F 30.1 °F 32.2 °F 89% 29.60 in 2.0 mi SE 5.8 mph - 0.01 in Snow Light Snow
8:35 AM 35.1 °F 31.0 °F 32.2 °F 89% 29.59 in 2.5 mi SSE 4.6 mph - 0.02 in   Overcast
8:54 AM 35.1 °F 29.3 °F 32.0 °F 89% 29.59 in 3.0 mi SE 6.9 mph - 0.02 in   Overcast
9:15 AM 35.1 °F 30.1 °F 32.0 °F 89% 29.59 in 3.0 mi SSE 5.8 mph - N/A   Overcast
9:35 AM 35.1 °F 29.3 °F 32.0 °F 89% 29.58 in 4.0 mi SSE 6.9 mph - N/A   Overcast
9:54 AM 35.1 °F 28.6 °F 32.0 °F 89% 29.58 in 4.0 mi SE 8.1 mph - N/A   Overcast
10:15 AM 35.8 °F 28.3 °F 32.2 °F 87% 29.57 in 3.0 mi South 10.4 mph - N/A Rain Light Rain
10:35 AM 37.6 °F 31.0 °F 33.8 °F 86% 29.57 in 5.0 mi South 9.2 mph - N/A   Overcast
10:54 AM 37.6 °F 31.0 °F 33.4 °F 85% 29.57 in 5.0 mi South 9.2 mph - N/A   Overcast
11:15 AM 37.6 °F 30.0 °F 32.9 °F 83% 29.57 in 7.0 mi SSW 11.5 mph - N/A   Overcast
11:35 AM 37.6 °F 29.1 °F 32.4 °F 81% 29.57 in 7.0 mi SW 13.8 mph - N/A   Overcast
11:54 AM 37.6 °F 30.5 °F 32.4 °F 81% 29.56 in 7.0 mi SW 10.4 mph - N/A   Overcast
12:15 PM 37.6 °F 29.6 °F 32.0 °F 80% 29.56 in 7.0 mi SW 12.7 mph 16.1 mph N/A   Overcast
12:35 PM 37.6 °F 31.0 °F 32.4 °F 81% 29.56 in 7.0 mi SW 9.2 mph - N/A   Overcast
12:55 PM 37.6 °F 31.6 °F 32.5 °F 82% 29.56 in 10.0 mi SW 8.1 mph - N/A   Overcast
1:15 PM 37.6 °F 32.3 °F 32.9 °F 83% 29.56 in 7.0 mi WSW 6.9 mph - N/A   Overcast
1:34 PM 36.9 °F 32.2 °F 32.4 °F 84% 29.56 in 5.0 mi WNW 5.8 mph - N/A   Haze
1:55 PM 35.1 °F - 31.6 °F 87% 29.56 in 1.2 mi Calm Calm - 0.01 in Snow Light Snow
2:15 PM 35.1 °F - 32.0 °F 89% 29.56 in 1.8 mi Calm Calm - 0.01 in Rain Light Rain
2:35 PM 35.1 °F 32.2 °F 32.0 °F 89% 29.56 in 2.0 mi SW 3.5 mph - 0.01 in   Drizzle
2:55 PM 35.1 °F 32.2 °F 32.0 °F 89% 29.56 in 1.5 mi SW 3.5 mph - 0.01 in   Drizzle
3:14 PM 35.1 °F 32.2 °F 32.0 °F 89% 29.57 in 1.5 mi SW 3.5 mph - N/A   Overcast
3:35 PM 35.1 °F 31.0 °F 32.2 °F 89% 29.57 in 1.8 mi WSW 4.6 mph - N/A   Light Drizzle
3:55 PM 35.1 °F 27.4 °F 32.2 °F 89% 29.59 in 2.0 mi North 10.4 mph - 0.01 in Rain Rain
4:14 PM 35.1 °F 24.8 °F 32.0 °F 89% 29.61 in 2.5 mi North 17.3 mph 26.5 mph N/A Rain Light Rain
4:35 PM 35.1 °F 25.9 °F 32.0 °F 89% 29.63 in 1.8 mi North 13.8 mph 20.7 mph N/A Snow Light Snow
4:55 PM 35.1 °F 25.5 °F 32.0 °F 89% 29.65 in 1.8 mi NNW 15.0 mph 24.2 mph N/A Snow Light Snow
5:15 PM 35.1 °F 25.5 °F 32.0 °F 89% 29.67 in 2.0 mi North 15.0 mph 24.2 mph N/A Snow Light Snow
5:35 PM 35.1 °F 25.2 °F 32.0 °F 89% 29.69 in 0.5 mi NNW 16.1 mph 21.9 mph N/A Snow Snow
5:54 PM 32.5 °F 22.3 °F 29.8 °F 90% 29.71 in 0.8 mi NNW 15.0 mph 27.6 mph N/A Snow Light Snow
6:15 PM 32.5 °F 19.9 °F 29.8 °F 90% 29.72 in 0.2 mi NNW 23.0 mph 28.8 mph N/A Snow Light Snow
6:35 PM 32.5 °F 21.9 °F 29.7 °F 89% 29.75 in 1.5 mi North 16.1 mph 23.0 mph N/A Snow Light Snow
6:54 PM 31.6 °F 19.7 °F 28.2 °F 87% 29.77 in 1.2 mi NNW 19.6 mph 26.5 mph N/A Snow Snow
7:15 PM 30.2 °F 17.8 °F 26.6 °F 86% 29.79 in 2.0 mi NNW 19.6 mph 29.9 mph N/A Snow Light Snow
7:34 PM 30.2 °F 17.8 °F 26.6 °F 86% 29.81 in 1.8 mi NNW 19.6 mph 27.6 mph N/A Snow Light Snow
7:55 PM 30.2 °F 18.9 °F 26.6 °F 86% 29.83 in 1.0 mi NNW 16.1 mph 27.6 mph N/A Snow Snow
8:15 PM 30.2 °F 17.4 °F 26.4 °F 86% 29.84 in 1.5 mi North 20.7 mph 29.9 mph N/A Snow Light Snow
8:34 PM 30.2 °F 18.9 °F 26.4 °F 86% 29.85 in 1.5 mi North 16.1 mph 21.9 mph N/A Snow Light Snow
8:55 PM 30.0 °F 17.9 °F 26.1 °F 85% 29.86 in 1.8 mi North 18.4 mph 23.0 mph N/A Snow Light Snow
9:15 PM 27.9 °F 17.3 °F 23.9 °F 85% 29.87 in 2.5 mi North 12.7 mph 20.7 mph N/A Snow Light Snow
9:34 PM 27.9 °F 15.9 °F 23.5 °F 84% 29.88 in 4.0 mi North 16.1 mph 26.5 mph N/A Snow Light Snow
9:55 PM 27.9 °F 16.8 °F 23.4 °F 83% 29.89 in 2.0 mi North 13.8 mph 21.9 mph N/A Snow Light Snow
10:15 PM 27.9 °F 16.8 °F 23.0 °F 82% 29.89 in 4.0 mi North 13.8 mph 19.6 mph N/A Snow Light Snow
10:35 PM 27.9 °F 18.4 °F 23.0 °F 82% 29.89 in 5.0 mi North 10.4 mph 16.1 mph N/A Snow Light Snow
10:55 PM 26.6 °F 16.2 °F 21.4 °F 81% 29.90 in 7.0 mi North 11.5 mph 17.3 mph N/A   Overcast
11:15 PM 27.9 °F 20.6 °F 22.6 °F 81% 29.90 in 10.0 mi North 6.9 mph - N/A   Overcast
11:35 PM 27.9 °F 19.8 °F 21.2 °F 76% 29.91 in 10.0 mi North 8.1 mph 17.3 mph N/A   Overcast
11:55 PM 27.9 °F 19.8 °F 20.3 °F 73% 29.92 in 10.0 mi North 8.1 mph - N/A   Overcast